Etusivu
METAR-TAF:

METAR-TAF

Lentoasemat :

Hemavan, Ruotsi

Leveyspiiri: 65-48-22N, Pituuspiiri: 015-04-58E, korkeus merenpinnasta: 458 m

Tämänhetkinen sää

Tämä raportti tehtiin 20 minuuttia sitten, kello 16.20 UTC
tyyntä
Lämpötila -22°C
Kosteus 76%
Ilmanpaine 1030 hPa
Näkyvyys 10 km tai enemmän

METAR: ESUT 141620Z AUTO 00000KT 9999 NCD M22/M25 Q1030

Aika: 17:40 (16:40 UTC)


TAF: puuttuu

Säähavainnot ja -ennusteet yli 4000 lentoasemalta (METAR- ja TAF-raportit).

Käytössä olevat sääasemat on merkitty karttaan keltaisilla ja punaisilla pisteillä.

Aseta hiiri pisteen päälle nähdäksesi sääaseman nimen.

Klikkaa sitten nähdäksesi säähavainnot ja -ennusteet.

Kartan vaihtaminen: klikkaa mustalla rastilla varustettuja vihreitä pisteitä, niin voit zoomata sisään; viivalla varustettua vihreää pistettä, niin voit zoomata ulos tai vihreitä nuolia, niin pääset viereisille kartoille.


METAR-TAF: